Regional Weather Roundup
Issued by NWS

Home | Current Version | Previous Version | Graphics & Text | Print | Product List | Glossary On
Versions: 1 2 3 4 5 6 7 8 9 10 11 12 13 14 15 16 17 18 19 20 21 22 23 24 25 26 27 28 29 30 31 32 33 34 35 36 37 38 39 40 41 42 43 44 45 46 47 48 49 50
000
ASUS45 KABQ 301910
RWRNM
WEATHER ROUNDUP FOR NEW MEXICO
NATIONAL WEATHER SERVICE ALBUQUERQUE NM
100 PM MDT THU OCT 30 2014

NOTE: "FAIR" MEANS FEW OR NO CLOUDS BELOW 12,000 FEET AGL WITH NO
       SIGNIFICANT WEATHER OR OBSTRUCTIONS TO VISION.

      THIS PRODUCT IS RELEASED AS TWO VERSIONS.  ONE VERSION NEAR
      THE TOP OF THE HOUR CONTAINING PRELIMINARY DATA FROM ALBUQUERQUE
      AND OTHER STATIONS.  A FINAL VERSION WITH ADDITIONAL DATA IS
      ISSUED ABOUT 10 MINUTES AFTER THE HOUR.

NMZ501-503-504-510>518-302000-
NORTHWEST PLATEAU/NORTHCENTRAL MOUNTAINS

CITY           SKY/WX    TMP DP  RH WIND       PRES   REMARKS
FARMINGTON     SUNNY     61  15  16 CALM      30.31F
LOS ALAMOS     SUNNY     60  13  15 S3        30.41F
SANTA FE       SUNNY     67  12  12 SE9       30.36F
TAOS           SUNNY     64  16  15 CALM      30.38F
ANGEL FIRE     FAIR      61  13  15 CALM      30.42F

$$
NMZ402-403-502-505>509-302000-
WESTCENTRAL MOUNTAINS/SOUTHWEST MOUNTAINS

CITY           SKY/WX    TMP DP  RH WIND       PRES   REMARKS
GALLUP         SUNNY     69  16  13 E7        30.35F
GRANTS         SUNNY     66  12  12 SE3       30.37F
SILVER CITY    SUNNY     73  28  19 SE10G16   30.30F

$$
NMZ407-409-411-412-302000-
SOUTHERN DESERTS

CITY           SKY/WX    TMP DP  RH WIND       PRES   REMARKS
LORDSBURG      FAIR      77  37  24 SE10      30.21F
DEMING         SUNNY     76  33  21 E9        30.23F
LAS CRUCES     SUNNY     75  34  22 NE6       30.25F
HOLLOMAN AFB   SUNNY     75  29  18 W3        30.21F
T OR C         SUNNY     73  23  15 N9        30.27F

$$
NMZ519>523-302000-
CENTRAL VALLEYS/CENTRAL HIGHLANDS

CITY           SKY/WX    TMP DP  RH WIND       PRES   REMARKS
ALBUQUERQUE    SUNNY     67  18  15 NE5       30.32F
DOUBLE EAGLE   SUNNY     66  16  14 VRB3      30.35F
MORIARTY ARPT  FAIR      69  17  13 S10G18    30.37F
CLINES CORNERS SUNNY     61  18  18 E10G18    30.39F
BELEN          FAIR      68  19  15 W7        30.33F
SOCORRO        FAIR      70  21  15 N12       30.31F

$$
NMZ524>526-539-540-302000-
SOUTHCENTRAL MOUNTAINS

CITY           SKY/WX    TMP DP  RH WIND       PRES   REMARKS
RUIDOSO        SUNNY     63  25  23 SE13      30.40F

$$
NMZ527>531-302000-
NORTHEAST HIGHLANDS/NORTHEAST PLAINS

CITY           SKY/WX    TMP DP  RH WIND       PRES   REMARKS
LAS VEGAS      SUNNY     61  19  19 SE6       30.40F
RATON          SUNNY     63  22  20 VRB3      30.36F
CLAYTON        SUNNY     66  23  19 N14       30.33F

$$
NMZ532>537-302000-
EASTCENTRAL PLAINS

CITY           SKY/WX    TMP DP  RH WIND       PRES   REMARKS
TUCUMCARI      SUNNY     72  22  15 E20G26    30.28F
CANNON AFB     SUNNY     72  27  18 NE23G33   30.26F
CLOVIS AIRPORT SUNNY     72  27  18 NE25      30.29F

$$
NMZ028-029-538-302000-
SOUTHEAST PLAINS

CITY           SKY/WX    TMP DP  RH WIND       PRES   REMARKS
ROSWELL        SUNNY     76  36  23 N16G22    30.24F
CARLSBAD       SUNNY     75  38  26 N17G26    30.20F
HOBBS          SUNNY     73  41  31 N15       30.20F


$$



USA.gov is the U.S. government's official web portal to all federal, state and local government web resources and services.